• In Slovakia
  • List of Countries
  • For 7 days
  • Water Temperature
  • Satellite Maps
  • Weather Map
  • Weather Widgets
  • user-avatar
    Login

    Hourly Weather Ischgl

    Today, 20 February, Tuesday

    Time Temperature Precipitation Wind Pressure Humidity
    00:00 -15°C° 0 mm 1 mps 564 mmHg 90%
    01:00 -14°C° 0 mm 1 mps 563 mmHg 89%
    02:00 -15°C° 0 mm 1 mps 563 mmHg 89%
    03:00 -15°C° 0 mm 1 mps 563 mmHg 90%
    04:00 -16°C° 0 mm 1 mps 562 mmHg 90%
    05:00 -16°C° 0 mm 1 mps 562 mmHg 91%
    06:00 -17°C° 0 mm 1 mps 562 mmHg 91%
    07:00 -17°C° 0 mm 1 mps 562 mmHg 92%
    08:00 -15°C° 0 mm 1 mps 562 mmHg 87%
    09:00 -14°C° 0 mm 1 mps 563 mmHg 82%
    10:00 -12°C° 0 mm 1 mps 564 mmHg 77%
    11:00 -11°C° 0 mm 1 mps 564 mmHg 75%
    12:00 -12°C° 0 mm 2 mps 565 mmHg 73%
    13:00 -10°C° 0 mm 2 mps 565 mmHg 72%
    14:00 -10°C° 0 mm 2 mps 565 mmHg 75%
    15:00 -12°C° 0 mm 2 mps 564 mmHg 79%
    16:00 -12°C° 0 mm 2 mps 564 mmHg 82%
    17:00 -13°C° 0.1 mm 2 mps 564 mmHg 86%
    18:00 -15°C° 0.1 mm 2 mps 563 mmHg 90%
    19:00 -16°C° 0.1 mm 2 mps 563 mmHg 94%
    20:00 -16°C° 0.1 mm 2 mps 563 mmHg 94%
    21:00 -17°C° 0.1 mm 2 mps 563 mmHg 94%
    22:00 -17°C° 0.1 mm 2 mps 563 mmHg 94%
    23:00 -18°C° 0 mm 2 mps 563 mmHg 94%

    Tomorrow, 21 February, Wednesday

    Time Temperature Precipitation Wind Pressure Humidity
    00:00 -16°C° 0 mm 1 mps 563 mmHg 94%
    01:00 -17°C° 0 mm 1 mps 563 mmHg 94%
    02:00 -17°C° 0 mm 1 mps 562 mmHg 93%
    03:00 -18°C° 0 mm 1 mps 562 mmHg 93%
    04:00 -18°C° 0 mm 1 mps 562 mmHg 92%
    05:00 -20°C° 0 mm 2 mps 562 mmHg 91%
    06:00 -21°C° 0 mm 2 mps 562 mmHg 91%
    07:00 -21°C° 0 mm 2 mps 562 mmHg 90%
    08:00 -19°C° 0 mm 2 mps 563 mmHg 87%
    09:00 -17°C° 0 mm 2 mps 564 mmHg 84%
    10:00 -14°C° 0 mm 2 mps 565 mmHg 82%
    11:00 -13°C° 0 mm 2 mps 565 mmHg 80%
    12:00 -12°C° 0 mm 2 mps 566 mmHg 78%
    13:00 -10°C° 0 mm 2 mps 566 mmHg 76%
    14:00 -10°C° 0.1 mm 2 mps 566 mmHg 79%
    15:00 -10°C° 0.1 mm 2 mps 565 mmHg 81%
    16:00 -12°C° 0.1 mm 3 mps 565 mmHg 83%
    17:00 -12°C° 0.1 mm 2 mps 565 mmHg 87%
    18:00 -14°C° 0.1 mm 2 mps 564 mmHg 90%
    19:00 -15°C° 0.1 mm 2 mps 564 mmHg 94%
    20:00 -16°C° 0 mm 2 mps 563 mmHg 94%
    21:00 -16°C° 0 mm 2 mps 563 mmHg 94%
    22:00 -17°C° 0 mm 2 mps 563 mmHg 93%
    23:00 -18°C° 0 mm 2 mps 562 mmHg 92%

    Day after tomorrow, 22 February, Thursday

    Time Temperature Precipitation Wind Pressure Humidity
    00:00 -18°C° 0 mm 2 mps 562 mmHg 92%
    01:00 -17°C° 0 mm 1 mps 561 mmHg 91%
    02:00 -16°C° 0 mm 1 mps 561 mmHg 88%
    03:00 -16°C° 0 mm 1 mps 561 mmHg 86%
    04:00 -16°C° 0 mm 1 mps 561 mmHg 84%
    05:00 -16°C° 0 mm 1 mps 561 mmHg 84%
    06:00 -16°C° 0 mm 1 mps 561 mmHg 83%
    07:00 -16°C° 0 mm 1 mps 561 mmHg 83%
    08:00 -14°C° 0 mm 1 mps 562 mmHg 81%
    09:00 -12°C° 0 mm 1 mps 563 mmHg 80%
    10:00 -11°C° 0 mm 1 mps 564 mmHg 78%
    11:00 -12°C° 0 mm 2 mps 564 mmHg 78%
    12:00 -10°C° 0 mm 2 mps 564 mmHg 78%
    13:00 -8°C° 0 mm 2 mps 565 mmHg 78%
    14:00 -9°C° 0.1 mm 2 mps 565 mmHg 80%
    15:00 -9°C° 0.1 mm 2 mps 564 mmHg 83%
    16:00 -9°C° 0.1 mm 2 mps 564 mmHg 85%
    17:00 -10°C° 0.1 mm 2 mps 564 mmHg 88%
    18:00 -10°C° 0.1 mm 1 mps 564 mmHg 90%
    19:00 -11°C° 0.1 mm 1 mps 563 mmHg 93%
    20:00 -12°C° 0 mm 1 mps 563 mmHg 92%
    21:00 -12°C° 0 mm 1 mps 563 mmHg 92%
    22:00 -13°C° 0 mm 1 mps 563 mmHg 91%
    23:00 -13°C° 0 mm 1 mps 563 mmHg 89%

    23 February, Friday

    Time Temperature Precipitation Wind Pressure Humidity
    00:00 -13°C° 0 mm 1 mps 563 mmHg 88%
    01:00 -14°C° 0 mm 1 mps 563 mmHg 87%
    02:00 -14°C° 0 mm 1 mps 563 mmHg 86%
    03:00 -14°C° 0 mm 1 mps 563 mmHg 85%
    04:00 -14°C° 0 mm 1 mps 563 mmHg 85%
    05:00 -14°C° 0 mm 1 mps 563 mmHg 84%
    06:00 -14°C° 0 mm 1 mps 563 mmHg 84%
    07:00 -14°C° 0 mm 1 mps 563 mmHg 84%
    08:00 -12°C° 0 mm 1 mps 564 mmHg 82%
    09:00 -10°C° 0 mm 1 mps 565 mmHg 80%
    10:00 -9°C° 0 mm 1 mps 566 mmHg 78%
    11:00 -8°C° 0 mm 1 mps 567 mmHg 77%
    12:00 -7°C° 0 mm 1 mps 567 mmHg 77%
    13:00 -7°C° 0 mm 1 mps 567 mmHg 76%
    14:00 -7°C° 0.1 mm 1 mps 567 mmHg 78%
    15:00 -7°C° 0.1 mm 1 mps 567 mmHg 79%
    16:00 -7°C° 0.1 mm 1 mps 567 mmHg 81%
    17:00 -8°C° 0.1 mm 1 mps 566 mmHg 84%
    18:00 -10°C° 0.1 mm 1 mps 565 mmHg 87%
    19:00 -11°C° 0.1 mm 1 mps 565 mmHg 91%
    20:00 -12°C° 0 mm 1 mps 565 mmHg 88%
    21:00 -12°C° 0 mm 1 mps 565 mmHg 85%
    22:00 -13°C° 0 mm 1 mps 565 mmHg 83%
    23:00 -15°C° 0 mm 2 mps 565 mmHg 80%

    24 February, Saturday

    Time Temperature Precipitation Wind Pressure Humidity
    00:00 -15°C° 0 mm 2 mps 565 mmHg 76%
    01:00 -15°C° 0 mm 2 mps 565 mmHg 73%
    02:00 -15°C° 0 mm 2 mps 565 mmHg 72%
    03:00 -14°C° 0 mm 2 mps 565 mmHg 70%
    04:00 -14°C° 0 mm 2 mps 565 mmHg 69%
    05:00 -12°C° 0 mm 1 mps 565 mmHg 69%
    06:00 -12°C° 0 mm 1 mps 565 mmHg 69%
    07:00 -12°C° 0 mm 1 mps 565 mmHg 70%
    08:00 -10°C° 0 mm 1 mps 566 mmHg 70%
    09:00 -8°C° 0 mm 1 mps 567 mmHg 70%
    10:00 -6°C° 0 mm 1 mps 568 mmHg 71%
    11:00 -4°C° 0 mm 1 mps 568 mmHg 75%
    12:00 -3°C° 0 mm 1 mps 569 mmHg 80%
    13:00 -3°C° 0 mm 1 mps 569 mmHg 84%
    14:00 -3°C° 0 mm 1 mps 569 mmHg 85%
    15:00 -3°C° 0 mm 1 mps 568 mmHg 86%
    16:00 -5°C° 0 mm 2 mps 568 mmHg 87%
    17:00 -6°C° 0 mm 1 mps 568 mmHg 90%
    18:00 -7°C° 0 mm 1 mps 567 mmHg 92%
    19:00 -8°C° 0 mm 1 mps 567 mmHg 94%
    20:00 -8°C° 0 mm 1 mps 567 mmHg 94%
    21:00 -9°C° 0 mm 1 mps 567 mmHg 94%
    22:00 -9°C° 0 mm 1 mps 566 mmHg 94%
    23:00 -9°C° 0.1 mm 1 mps 566 mmHg 94%

    25 February, Sunday

    Time Temperature Precipitation Wind Pressure Humidity
    00:00 -10°C° 0.1 mm 1 mps 566 mmHg 94%
    01:00 -10°C° 0.1 mm 1 mps 566 mmHg 94%
    02:00 -10°C° 0.2 mm 1 mps 565 mmHg 94%
    03:00 -11°C° 0.2 mm 1 mps 565 mmHg 94%
    04:00 -11°C° 0.2 mm 1 mps 564 mmHg 94%
    05:00 -12°C° 0.3 mm 1 mps 564 mmHg 94%
    06:00 -12°C° 0.3 mm 1 mps 564 mmHg 94%
    07:00 -13°C° 0.3 mm 1 mps 563 mmHg 94%
    08:00 -12°C° 0.4 mm 1 mps 564 mmHg 93%
    09:00 -14°C° 0.4 mm 2 mps 564 mmHg 92%
    10:00 -14°C° 0.4 mm 2 mps 564 mmHg 91%
    11:00 -14°C° 0.4 mm 2 mps 564 mmHg 90%
    12:00 -14°C° 0.4 mm 2 mps 564 mmHg 90%
    13:00 -14°C° 0.4 mm 2 mps 563 mmHg 90%
    14:00 -14°C° 0.4 mm 2 mps 563 mmHg 90%
    15:00 -14°C° 0.4 mm 2 mps 563 mmHg 91%
    16:00 -15°C° 0.4 mm 2 mps 563 mmHg 92%
    17:00 -16°C° 0.3 mm 2 mps 562 mmHg 92%
    18:00 -17°C° 0.3 mm 2 mps 562 mmHg 93%
    19:00 -15°C° 0.3 mm 1 mps 562 mmHg 94%
    20:00 -16°C° 0.2 mm 1 mps 562 mmHg 94%
    21:00 -16°C° 0.2 mm 1 mps 562 mmHg 93%
    22:00 -16°C° 0.2 mm 1 mps 562 mmHg 93%
    23:00 -16°C° 0.2 mm 1 mps 562 mmHg 93%
    Show more